Regional Weather Roundup
Issued by NWS

Home | Current Version | Previous Version | Graphics & Text | Print | Product List | Glossary On
Versions: 1 2 3 4 5 6 7 8 9 10 11 12 13 14 15 16 17 18 19 20 21 22 23 24 25 26 27 28 29 30 31 32 33 34 35 36 37 38 39 40 41 42 43 44 45 46 47 48 49 50
000
ASUS45 KABQ 252210
RWRNM
WEATHER ROUNDUP FOR NEW MEXICO
NATIONAL WEATHER SERVICE ALBUQUERQUE NM
400 PM MDT SAT OCT 25 2014

NOTE: "FAIR" MEANS FEW OR NO CLOUDS BELOW 12,000 FEET AGL WITH NO
       SIGNIFICANT WEATHER OR OBSTRUCTIONS TO VISION.

      THIS PRODUCT IS RELEASED AS TWO VERSIONS.  ONE VERSION NEAR
      THE TOP OF THE HOUR CONTAINING PRELIMINARY DATA FROM ALBUQUERQUE
      AND OTHER STATIONS.  A FINAL VERSION WITH ADDITIONAL DATA IS
      ISSUED ABOUT 10 MINUTES AFTER THE HOUR.

NMZ501-503-504-510>518-252300-
NORTHWEST PLATEAU/NORTHCENTRAL MOUNTAINS

CITY           SKY/WX    TMP DP  RH WIND       PRES   REMARKS
FARMINGTON     SUNNY     78  30  17 CALM      30.20F
LOS ALAMOS     SUNNY     71  25  17 S3        30.31S
SANTA FE       SUNNY     78  22  12 W14G22    30.24F
TAOS           SUNNY     73  19  13 SW8       30.28F
ANGEL FIRE     FAIR      69   4   7 W17       30.35F

$$
NMZ402-403-502-505>509-252300-
WESTCENTRAL MOUNTAINS/SOUTHWEST MOUNTAINS

CITY           SKY/WX    TMP DP  RH WIND       PRES   REMARKS
GALLUP         SUNNY     74  35  24 W15       30.29F
GRANTS         SUNNY     77  28  16 CALM      30.28S
SILVER CITY    SUNNY     79  37  22 W14       30.26S

$$
NMZ407-409-411-412-252300-
SOUTHERN DESERTS

CITY           SKY/WX    TMP DP  RH WIND       PRES   REMARKS
LORDSBURG      FAIR      82  41  23 W3        30.17F
DEMING         SUNNY     83  44  25 SW8       30.17F
LAS CRUCES     SUNNY     82  40  22 W8        30.19F
HOLLOMAN AFB   MOSUNNY   83  41  22 NW2       30.15F
T OR C         SUNNY     81  39  22 S10       30.18F

$$
NMZ519>523-252300-
CENTRAL VALLEYS/CENTRAL HIGHLANDS

CITY           SKY/WX    TMP DP  RH WIND       PRES   REMARKS
ALBUQUERQUE    SUNNY     78  33  19 VRB5      30.21F
DOUBLE EAGLE   SUNNY     77  34  20 VRB7      30.24F
MORIARTY ARPT  FAIR      79  27  14 W12       30.25F
CLINES CORNERS SUNNY     75  25  15 W15G23    30.28F
BELEN          FAIR      80  35  19 S6        30.19F
SOCORRO        FAIR      80  40  24 SE6       30.19S

$$
NMZ524>526-539-540-252300-
SOUTHCENTRAL MOUNTAINS

CITY           SKY/WX    TMP DP  RH WIND       PRES   REMARKS
RUIDOSO        SUNNY     73  28  19 SW5       30.33S

$$
NMZ527>531-252300-
NORTHEAST HIGHLANDS/NORTHEAST PLAINS

CITY           SKY/WX    TMP DP  RH WIND       PRES   REMARKS
LAS VEGAS      SUNNY     79  12   8 SW18G25   30.23F
RATON          SUNNY     82  20  10 S12       30.16F
CLAYTON        SUNNY     84  26  12 S20G25    30.10F

$$
NMZ532>537-252300-
EASTCENTRAL PLAINS

CITY           SKY/WX    TMP DP  RH WIND       PRES   REMARKS
TUCUMCARI      SUNNY     88  38  17 SW18      30.07F
CANNON AFB     SUNNY     84  41  21 SW16      30.13F
CLOVIS AIRPORT SUNNY     84  41  21 SW13G20   30.15S

$$
NMZ028-029-538-252300-
SOUTHEAST PLAINS

CITY           SKY/WX    TMP DP  RH WIND       PRES   REMARKS
ROSWELL        SUNNY     83  50  31 SE12      30.10F
CARLSBAD       SUNNY     84  52  33 SE8       30.08F
HOBBS          SUNNY     82  46  28 S10G18    30.14F


$$



USA.gov is the U.S. government's official web portal to all federal, state and local government web resources and services.